Weather History for Watertown, NY

Change the Weather History Date:

Saturday, February 22, 2014

  Actual Average Record
Temperature  
Mean Temperature 39 °F 22 °F  
Max Temperature 43 °F 33 °F 63 °F (1981)
Min Temperature 35 °F 12 °F -22 °F (1972)
Degree Days  
Heating Degree Days 26 42  
Month to date heating degree days 1003 982  
Since 1 July heating degree days 5337 5193  
Cooling Degree Days 0 0  
Month to date cooling degree days 0 0  
Year to date cooling degree days 0 0  
Moisture  
Dew Point 20 °F    
Average Humidity 51    
Maximum Humidity 59    
Minimum Humidity 43    
Precipitation  
Precipitation 0.00 in 0.08 in 0.85 in (1990)
Month to date precipitation 1.60 1.73  
Year to date precipitation 5.29 4.39  
Sea Level Pressure  
Sea Level Pressure 29.81 in    
Wind  
Wind Speed 18 mph (SW)    
Max Wind Speed 31 mph    
Max Gust Speed 43 mph    
Visibility 10 miles    
Events      
T = Trace of Precipitation, MM = Missing Value Source: NWS Daily Summary

Daily Weather History Graph

Daily Weather History Graph

Search for Another Location

Airport:

Trip Planner

Search our weather history database for the weather conditions in past years. The results will help you decide how hot, cold, wet, or windy it might be!

Date:

Astronomy

Feb. 22, 2014 Rise Set
Actual Time 6:52 AM EST 5:43 PM EST
Civil Twilight 6:23 AM EST 6:12 PM EST
Nautical Twilight 5:49 AM EST 6:46 PM EST
Astronomical Twilight 5:16 AM EST 7:19 PM EST
Moon 12:50 AM EST (2/22) 10:47 AM EST (2/22)
Length of Visible Light 11h 49m
Length of Day
10h 50m
Waning Gibbous, 50% of the Moon is Illuminated
Feb 22
Waning Gibbous
Feb 22
Last Quarter
Mar 1
New
Mar 8
First Quarter
Mar 16
Full

Hourly Weather History & Observations

Time (EST) Temp. Windchill Dew Point Humidity Pressure Visibility Wind Dir Wind Speed Gust Speed Precip Events Conditions
12:56 AM 37.0 °F 27.7 °F 23.0 °F 57% 29.77 in 10.0 mi SW 16.1 mph 26.5 mph N/A   Mostly Cloudy
1:56 AM 37.0 °F 27.0 °F 21.0 °F 52% 29.78 in 10.0 mi SW 18.4 mph 27.6 mph N/A   Clear
2:56 AM 36.0 °F 25.3 °F 19.9 °F 52% 29.78 in 10.0 mi SW 19.6 mph 28.8 mph N/A   Clear
3:56 AM 36.0 °F 27.1 °F 19.0 °F 50% 29.79 in 10.0 mi SW 13.8 mph 23.0 mph N/A   Clear
4:56 AM 36.0 °F 28.5 °F 19.0 °F 50% 29.78 in 10.0 mi SSW 10.4 mph 19.6 mph N/A   Clear
5:56 AM 36.0 °F 27.5 °F 16.0 °F 44% 29.77 in 10.0 mi SSW 12.7 mph 21.9 mph N/A   Scattered Clouds
6:56 AM 37.9 °F 28.9 °F 17.1 °F 43% 29.75 in 10.0 mi SSW 16.1 mph 24.2 mph N/A   Overcast
7:56 AM 37.9 °F 28.5 °F 18.0 °F 45% 29.75 in 10.0 mi South 17.3 mph 26.5 mph N/A   Overcast
8:56 AM 39.9 °F 31.1 °F 19.0 °F 43% 29.75 in 10.0 mi SSW 17.3 mph 29.9 mph N/A   Overcast
9:56 AM 39.9 °F 30.8 °F 19.0 °F 43% 29.74 in 10.0 mi South 18.4 mph 27.6 mph N/A   Mostly Cloudy
10:56 AM 43.0 °F 34.5 °F 21.0 °F 42% 29.74 in 10.0 mi SSW 19.6 mph 27.6 mph N/A   Scattered Clouds
11:56 AM 42.1 °F 31.7 °F 24.1 °F 49% 29.75 in 10.0 mi SW 27.6 mph 38.0 mph N/A   Mostly Cloudy
12:56 PM 41.0 °F 30.5 °F 21.9 °F 47% 29.77 in 10.0 mi SW 26.5 mph 42.6 mph N/A   Clear
1:56 PM 39.0 °F 29.0 °F 23.0 °F 53% 29.78 in 10.0 mi WSW 20.7 mph 29.9 mph N/A   Clear
2:56 PM 39.0 °F 29.6 °F 23.0 °F 53% 29.80 in 10.0 mi WSW 18.4 mph 31.1 mph N/A   Clear
3:56 PM 37.0 °F 26.4 °F 21.0 °F 52% 29.83 in 10.0 mi WSW 20.7 mph 42.6 mph N/A   Clear
4:56 PM 36.0 °F 26.7 °F 21.9 °F 57% 29.84 in 10.0 mi WSW 15.0 mph 25.3 mph N/A   Partly Cloudy
5:56 PM 35.1 °F 24.5 °F 19.9 °F 54% 29.86 in 10.0 mi WSW 18.4 mph 26.5 mph N/A   Clear
6:56 PM 35.1 °F 24.8 °F 19.0 °F 52% 29.88 in 10.0 mi SW 17.3 mph 31.1 mph N/A   Clear
7:56 PM 35.1 °F 24.5 °F 18.0 °F 50% 29.89 in 10.0 mi WSW 18.4 mph 32.2 mph N/A   Clear
8:56 PM 35.1 °F 24.5 °F 19.0 °F 52% 29.89 in 10.0 mi SW 18.4 mph 26.5 mph N/A   Clear
9:56 PM 36.0 °F 26.0 °F 19.0 °F 50% 29.91 in 10.0 mi WSW 17.3 mph 29.9 mph N/A   Partly Cloudy
10:56 PM 36.0 °F 27.1 °F 19.0 °F 50% 29.91 in 10.0 mi SW 13.8 mph 20.7 mph N/A   Overcast
11:56 PM 35.1 °F 26.4 °F 21.0 °F 57% 29.91 in 10.0 mi SW 12.7 mph - N/A   Mostly Cloudy